Location: Dresden
(51.0483°N, 13.7137°E)
Time: 09:51:18
(UTC+01:00)

N. Korean satellite - Visible Passes

Search period start: 18 February 2018 00:00
Search period end: 28 February 2018 00:00
Orbit: 459 x 514 km, 97.2° (Epoch: 17 February)

Date Brightness Start Highest point End Pass type
(mag) Time Alt. Az. Time Alt. Az. Time Alt. Az.
18 Feb 9.9 05:56:40 10° NE 05:59:16 18° E 06:01:53 10° SE visible
18 Feb 7.7 18:10:29 10° S 18:13:48 48° W 18:17:13 10° NNW visible
19 Feb 10.6 05:34:28 10° ENE 05:35:17 11° E 05:36:07 10° E visible
20 Feb 10.0 18:58:01 10° SW 19:00:07 15° W 19:02:15 10° NW visible
21 Feb 8.9 06:18:24 10° NNE 06:21:42 31° E 06:25:01 10° SSE visible
21 Feb 9.0 18:33:12 10° SSW 18:36:11 27° W 18:39:13 10° NW visible
22 Feb 10.0 05:55:11 10° NE 05:57:48 18° E 06:00:25 10° SE visible
22 Feb 7.6 18:08:57 10° S 18:12:18 49° W 18:15:45 10° NNW visible
23 Feb 10.7 05:33:03 10° ENE 05:33:48 10° E 05:34:33 10° E visible
24 Feb 10.0 18:56:23 10° SW 18:58:36 16° W 19:00:50 10° NW visible
25 Feb 9.0 06:16:53 10° NNE 06:20:12 30° E 06:23:32 10° SSE visible
25 Feb 9.0 18:31:36 10° SSW 18:34:38 28° W 18:37:44 10° NW visible
26 Feb 10.0 05:53:41 10° NE 05:56:17 18° E 05:58:53 10° SE visible
26 Feb 7.6 18:07:22 10° S 18:10:46 51° W 18:14:15 10° NNW visible
27 Feb 10.8 05:31:39 10° ENE 05:32:17 10° E 05:32:54 10° E visible
